Date,TemperatureHighF,TemperatureAvgF,TemperatureLowF,DewpointHighF,DewpointAvgF,DewpointLowF,HumidityHigh,HumidityAvg,HumidityLow,PressureMaxIn,PressureMinIn,WindSpeedMaxMPH,WindSpeedAvgMPH,GustSpeedMaxMPH,PrecipitationSumIn
2013-5-2,86.6,75.6,71.4,37.5,32.7,25.8,29,22,11,30.15,30.08,1,0,2,0.00
2013-5-3,89.3,82.0,66.6,44.6,40.5,37.2,45,25,16,30.00,29.84,4,2,4,0.00
2013-5-4,76.3,70.5,54.5,50.1,47.0,45.1,85,47,33,29.61,29.59,13,8,14,0.00
2013-5-5,58.4,58.2,57.8,51.3,51.2,51.1,79,78,77,29.82,29.80,6,4,32,0.00
2013-5-6,70.6,61.0,58.8,52.8,51.8,50.0,77,72,48,29.97,29.84,7,4,12,0.00
2013-5-7,59.6,59.5,59.3,52.8,52.5,52.3,79,78,77,29.99,29.99,3,2,5,0.00
2013-5-8,50.3,50.0,49.9,47.8,47.5,47.1,91,91,90,30.08,30.07,1,0,6,0.00
2013-5-9,55.8,52.8,49.1,49.0,47.8,46.4,91,83,77,30.18,30.13,1,0,3,0.00
2013-5-10,76.6,53.9,50.6,56.6,48.4,46.6,88,82,50,30.20,30.13,4,0,8,0.00
2013-5-11,86.5,77.6,50.0,59.0,55.7,47.5,92,51,38,30.11,30.04,3,1,5,0.00
2013-5-12,87.1,63.3,50.7,60.2,51.2,43.1,90,71,23,30.15,30.03,2,1,8,0.00
2013-5-13,58.3,58.3,58.3,52.8,52.8,52.8,82,82,82,29.96,29.96,0,0,0,0.00
2013-5-14,83.2,63.8,55.3,55.0,48.8,45.2,75,60,36,30.00,29.92,3,0,7,0.00
2013-5-15,51.5,51.1,50.8,46.8,46.4,46.1,84,84,83,30.00,29.99,1,0,2,0.00
2013-5-16,59.3,57.8,56.0,50.4,49.2,47.5,74,73,72,30.00,30.00,7,4,9,0.00
2013-5-17,70.7,58.5,51.3,48.2,44.9,42.4,76,62,42,30.08,30.01,7,2,13,0.00
2013-5-18,69.5,63.0,52.1,53.6,47.5,44.4,75,58,51,30.13,30.08,6,3,13,0.00
2013-5-19,80.6,67.7,62.0,52.4,46.8,44.3,58,49,28,30.12,29.98,5,2,17,0.00
2013-5-20,84.2,66.9,52.4,51.4,45.5,36.1,81,53,18,30.01,29.91,3,1,10,0.00
2013-5-21,67.4,62.8,53.2,47.6,45.9,44.7,80,56,46,29.99,29.94,9,5,15,0.00